"Pseudo-MPEC" for P21VgNE

Created 2024 Jun 15 17:22:10 UT using Find_Orb

Click here for an explanation of pseudo-MPECs

 
 Astrometry: 
     P21VgNE 1C2024 05 18.43985 21 18 51.89 +02 49 20.9    ~6C9M       VNEOCPG96
     P21VgNE 1C2024 05 18.45564 21 18 52.04 +02 49 26.3    ~6C9M 21.9 GVNEOCPG96
     P21VgNE  C2024 06 07.41503221 19 30.176+04 42 06.88   ~67MM 21.62GVNEOCPV00
     P21VgNE  C2024 06 07.42067321 19 30.166+04 42 08.78   ~67MM 21.93GVNEOCPV00
     P21VgNE  C2024 06 07.42628321 19 30.155+04 42 10.55   ~67MM 21.89GVNEOCPV00
     P21VgNE  C2024 06 07.43188621 19 30.130+04 42 12.49   ~67MM 21.47GVNEOCPV00
     P21VgNE* C2024 06 07MX^,JcTjF;KWjwvU`=Bme1J(9fT%S[^lg./vRUxG'/7$`lWh1u-vF52
     P21VgNE  C2024 06 07y5jeCos$-?loNB^@IeOaCi-aGvLv)Ivs9;bhuJ-g?6cAt)E92,\mF52
     P21VgNE  C2024 06 07w#i#yMOFAstrometrysk\37`uX%1A!+$Fx7,Zmy1pC4IJoyJhDf$F52
     P21VgNE  C2024 06 07WXd,6D=XE6E'Q4t*EDM4HQ)G!KEhPFn/68H])_(]f3r;q9E_awB.F52
     P21VgNE 3C2024 06 11xnS@x0@lsW+S%B\%t+8l0=9VW!Syc+GqLy[FlTWQ-]MDUR`Ed:U[T14
     P21VgNE 3C2024 06 11Te8Urlr$mi*redacted;mJ*9Xbj@y=TJ6oo/$5cD(rtEtghX49cMT14
     P21VgNE 3C2024 06 11KKqEJ5cX9yM.S]fi0KMMEr!f`Z!Sw(YH$L5h*NgX6uodIg5vn4HoT14
     P21VgNE KC2024 06 12T/)/8u(8T'h9//Ky*click@!HCB7@6%h`ZQiinJ[i,si;T1Tcu%bH21
     P21VgNE KC2024 06 12Yyhere(B`sQy+736ZV*^8Nke=,@)`]X?7r?:forXmW/lYR557s'eH21
     P21VgNE KC2024 06 15dm\pg?0JwOJ5GB.U!MdGC?OTpf'wQljh1-'6+V:tX](N8*UV+xO2H21
     P21VgNE KC2024 06 15M](:eYEW$gM5uTKZefTw#\Ko@KLXU8+8ty#Sy4WfGaprA[8u2;27H21
     P21VgNE KC2024 06 150Rq6XOexplanationEp5]D4;RgO/TE0o)kQu@dkRU!_Mk=6hkN2ZH21

Station data:
(F52) Pan-STARRS 2, Haleakala  (N20.707382 W156.255910)  US/Hawaii.
   Observers J. Bulger, T. Dukes, T. Lowe, A. Schultz, M. Willman. Measurers
   K. Chambers, S. Chastel, T. de Boer, L. Denneau, J. Fairlamb, H.
   Flewelling, M. Huber, C.-C. Lin, E. Magnier, Y. Ramanjooloo, R. Wainscoat,
   R. Weryk. 1.8-m Ritchey-Chrétien + CCD.
(G96) Mt. Lemmon Survey  (N32.442729 W110.788720)  US/Arizona.  Observer E.
   J. Christensen. 1.5-m reflector + 10K CCD.
(H21) Astronomical Research Observatory, Westfield  (N39.483054 W87.968270)
   US/Illinois.  Observer R. Holmes. Measurers S. Foglia, L. Buzzi, T.
   Linder, R. Holmes. 0.76-m f/3.0 astrograph + CCD0.81-m f/4.0 astrograph +
   CCD0.61-m f/4.5 astrograph + CCD0.40-m f/5.32 astrograph + CCD.
(T14) Mauna Kea-UH/Tholen NEO Follow-Up (CFHT)  (N19.825252 W155.468876)
   US/Hawaii.  Observer R. Weryk. 3.6-m Canada-France-Hawaii Telescope.
(V00) Kitt Peak-Bok  (N31.963125 W111.600190)  US/Arizona.  Observers T. A.
   Pruyne, B. M. Africano, E. J. Christensen, G. A. Farneth, D. C. Fuls, A.
   R. Gibbs, A. D. Grauer, H. Gröller, J. A. Johnson, R. A. Kowalski, S. M.
   Larson, G. J. Leonard, D. Rankin, R. L. Seaman, F. C. Shelly, K. W.
   Wierzchoś. 2.25-m reflector + 4x4K mosaic CCD.

Orbital elements:  P21VgNE
   Perihelion 2024 May 28.35255 +/- 5.06 TT =  8:27:40 (JD 2460458.85255)
Epoch 2024 Jun 15.0 TT = JDT 2460476.5                           AutoNEOCP
M   0.23549776 +/- 0.06             (J2000 ecliptic)
n   0.01334458 +/- 0.000114         Peri.   33.12506 +/- 0.40
a  17.6035157 +/- 0.1               Node   285.55943 +/- 0.015
e   0.6425459 +/- 0.00196           Incl.   33.40991 +/- 0.011
P  73.86                   H 13.43  G  0.15   U  6.7
q 6.29244715 +/- 0.00175    Q 28.9145843 +/- 0.199
From 18 observations 2024 May 18-June 15; mean residual 0".25
Residuals in arcseconds: 
240518 G96  .33-  .13+    240607 F52  .18+  .08+    240611 T14  .05-  .01-    
240518 G96  .21+  .13-    240607 F52  .03+  .16+    240612 H21  .17+  .03-    
240607 V00  .25-  .23-    240607 F52  .13+  .04+    240612 H21  .05+  .20+    
240607 V00  .03-  .11-    240607 F52  .16+  .10-    240615 H21  .46+  .37+    
240607 V00  .17+  .11-    240611 T14  .08-  .04-    240615 H21  .69+  .28+    
240607 V00  .17+  .07+    240611 T14  .06-  .01-    240615 H21  .85+  .02+    

Ephemerides (geocentric):
Date (UTC) HH   RA             Dec           delta  r     elong  mag " sig PA
---- --------  ------------   ------------  ------ ------ -----  --- --------
2024 06 15 17  21 18 38.008   +05 23 59.56  5.7404 6.2933 118.8 21.8 .144  74
2024 06 15 18  21 18 37.648   +05 24 11.64  5.7399 6.2933 118.9 21.8 .145  74
2024 06 15 19  21 18 37.287   +05 24 23.71  5.7394 6.2933 118.9 21.8 .147  74
2024 06 15 20  21 18 36.925   +05 24 35.77  5.7389 6.2933 118.9 21.8 .149  74
2024 06 15 21  21 18 36.562   +05 24 47.82  5.7383 6.2933 119.0 21.8 .150  74
2024 06 15 22  21 18 36.197   +05 24 59.87  5.7378 6.2933 119.0 21.8 .152  74
2024 06 15 23  21 18 35.832   +05 25 11.92  5.7373 6.2933 119.0 21.8 .153  74
2024 06 16 00  21 18 35.466   +05 25 23.96  5.7368 6.2933 119.1 21.8 .155  74
2024 06 16 01  21 18 35.099   +05 25 35.99  5.7363 6.2933 119.1 21.8 .157  74
2024 06 16 02  21 18 34.731   +05 25 48.02  5.7358 6.2933 119.1 21.8 .158  74
2024 06 16 03  21 18 34.362   +05 26 00.04  5.7352 6.2933 119.2 21.8 .160  74
2024 06 16 04  21 18 33.992   +05 26 12.06  5.7347 6.2933 119.2 21.8 .161  74
2024 06 16 05  21 18 33.622   +05 26 24.07  5.7342 6.2933 119.2 21.8 .163  74
2024 06 16 06  21 18 33.250   +05 26 36.07  5.7337 6.2933 119.3 21.8 .165  74
2024 06 16 07  21 18 32.877   +05 26 48.07  5.7332 6.2933 119.3 21.8 .166  74
2024 06 16 08  21 18 32.503   +05 27 00.06  5.7327 6.2933 119.4 21.8 .168  74
2024 06 16 09  21 18 32.128   +05 27 12.05  5.7322 6.2933 119.4 21.8 .170  74
2024 06 16 10  21 18 31.753   +05 27 24.03  5.7317 6.2933 119.4 21.8 .171  74
2024 06 16 11  21 18 31.376   +05 27 36.01  5.7311 6.2933 119.5 21.8 .173  74
2024 06 16 12  21 18 30.999   +05 27 47.98  5.7306 6.2933 119.5 21.8 .175  74
2024 06 16 13  21 18 30.620   +05 27 59.94  5.7301 6.2933 119.5 21.8 .176  74
2024 06 16 14  21 18 30.240   +05 28 11.90  5.7296 6.2933 119.6 21.8 .178  74
2024 06 16 15  21 18 29.860   +05 28 23.85  5.7291 6.2933 119.6 21.8 .180  74
2024 06 16 16  21 18 29.479   +05 28 35.80  5.7286 6.2933 119.6 21.8 .181  74
2024 06 16 17  21 18 29.096   +05 28 47.74  5.7281 6.2933 119.7 21.8 .183  74
2024 06 16 18  21 18 28.713   +05 28 59.67  5.7276 6.2933 119.7 21.8 .185  74
2024 06 16 19  21 18 28.329   +05 29 11.60  5.7271 6.2934 119.8 21.8 .186  74
2024 06 16 20  21 18 27.943   +05 29 23.52  5.7265 6.2934 119.8 21.8 .188  74
2024 06 16 21  21 18 27.557   +05 29 35.44  5.7260 6.2934 119.8 21.8 .190  74
2024 06 16 22  21 18 27.170   +05 29 47.35  5.7255 6.2934 119.9 21.8 .191  74
2024 06 16 23  21 18 26.782   +05 29 59.26  5.7250 6.2934 119.9 21.8 .193  74
2024 06 17 00  21 18 26.393   +05 30 11.16  5.7245 6.2934 119.9 21.8 .195  74
2024 06 17 01  21 18 26.003   +05 30 23.05  5.7240 6.2934 120.0 21.8 .197  74
2024 06 17 02  21 18 25.612   +05 30 34.94  5.7235 6.2934 120.0 21.8 .198  74
2024 06 17 03  21 18 25.220   +05 30 46.82  5.7230 6.2934 120.0 21.8 .200  74
2024 06 17 04  21 18 24.827   +05 30 58.70  5.7225 6.2934 120.1 21.8 .202  74
2024 06 17 05  21 18 24.433   +05 31 10.57  5.7220 6.2934 120.1 21.8 .204  74
2024 06 17 06  21 18 24.038   +05 31 22.43  5.7215 6.2934 120.2 21.8 .205  74
2024 06 17 07  21 18 23.642   +05 31 34.29  5.7209 6.2934 120.2 21.8 .207  74
2024 06 17 08  21 18 23.245   +05 31 46.14  5.7204 6.2934 120.2 21.8 .209  74
2024 06 17 09  21 18 22.848   +05 31 57.99  5.7199 6.2934 120.3 21.8 .211  74
2024 06 17 10  21 18 22.449   +05 32 09.83  5.7194 6.2934 120.3 21.8 .212  74
2024 06 17 11  21 18 22.050   +05 32 21.66  5.7189 6.2934 120.3 21.8 .214  74
2024 06 17 12  21 18 21.649   +05 32 33.49  5.7184 6.2934 120.4 21.8 .216  74
2024 06 17 13  21 18 21.248   +05 32 45.32  5.7179 6.2934 120.4 21.8 .218  74
2024 06 17 14  21 18 20.845   +05 32 57.13  5.7174 6.2934 120.4 21.8 .220  74
2024 06 17 15  21 18 20.442   +05 33 08.94  5.7169 6.2934 120.5 21.8 .221  74
2024 06 17 16  21 18 20.037   +05 33 20.75  5.7164 6.2934 120.5 21.8 .223  73